TimeEST,TemperatureF,Dew PointF,Humidity,Sea Level PressureIn,VisibilityMPH,Wind Direction,Wind SpeedMPH,Gust SpeedMPH,PrecipitationIn,Events,Conditions,WindDirDegrees,DateUTC
12:56 AM,36.0,28.9,76,30.22,10.0,Calm,Calm,-,N/A,,Clear,0,2013-01-07 05:56:00
1:56 AM,32.0,28.0,85,30.22,10.0,Calm,Calm,-,N/A,,Clear,0,2013-01-07 06:56:00
2:56 AM,32.0,30.0,92,30.23,10.0,Calm,Calm,-,N/A,,Clear,0,2013-01-07 07:56:00
3:56 AM,32.0,30.0,92,30.26,10.0,Calm,Calm,-,N/A,,Clear,0,2013-01-07 08:56:00
4:56 AM,28.9,28.0,96,30.28,10.0,NW,4.6,-,N/A,,Clear,310,2013-01-07 09:56:00
5:56 AM,28.0,27.0,96,30.29,10.0,Calm,Calm,-,N/A,,Clear,0,2013-01-07 10:56:00
6:56 AM,27.0,26.1,96,30.32,10.0,ENE,3.5,-,N/A,,Clear,70,2013-01-07 11:56:00
7:56 AM,26.1,24.1,92,30.34,10.0,Calm,Calm,-,N/A,,Clear,0,2013-01-07 12:56:00
8:56 AM,34.0,32.0,92,30.36,10.0,ENE,3.5,-,N/A,,Clear,70,2013-01-07 13:56:00
10:56 AM,48.9,28.9,46,30.41,10.0,ENE,10.4,-,N/A,,Clear,70,2013-01-07 15:56:00
11:56 AM,50.0,28.9,44,30.39,10.0,East,5.8,-,N/A,,Clear,100,2013-01-07 16:56:00
12:56 PM,53.1,28.0,38,30.36,10.0,East,9.2,-,N/A,,Clear,100,2013-01-07 17:56:00
1:56 PM,53.1,27.0,37,30.34,10.0,East,6.9,-,N/A,,Clear,80,2013-01-07 18:56:00
2:56 PM,54.0,27.0,35,30.33,10.0,ESE,9.2,-,N/A,,Clear,110,2013-01-07 19:56:00
3:56 PM,53.1,27.0,37,30.35,10.0,East,6.9,-,N/A,,Clear,100,2013-01-07 20:56:00
4:56 PM,52.0,27.0,38,30.36,10.0,ESE,6.9,-,N/A,,Clear,110,2013-01-07 21:56:00
5:56 PM,46.9,28.0,48,30.38,10.0,ESE,3.5,-,N/A,,Clear,120,2013-01-07 22:56:00
7:56 PM,42.1,30.0,62,30.38,10.0,East,4.6,-,N/A,,Clear,80,2013-01-08 00:56:00
8:56 PM,41.0,30.0,65,30.40,10.0,ENE,3.5,-,N/A,,Clear,60,2013-01-08 01:56:00
9:56 PM,39.0,30.0,70,30.39,10.0,East,3.5,-,N/A,,Clear,80,2013-01-08 02:56:00
10:56 PM,37.0,28.9,73,30.39,10.0,ENE,3.5,-,N/A,,Clear,60,2013-01-08 03:56:00
11:56 PM,32.0,28.9,88,30.40,10.0,ENE,3.5,-,N/A,,Clear,70,2013-01-08 04:56:00